Back to catalog

STARLINK-33704

AliveCommunicationsVLEO
NORAD 63650·PAYLOAD·🇺🇸 United States

Launched Apr 25, 2025 from Cape Canaveral Space Force Station

Loading…

Next Passes (next 24 hours)

TLE

FreshSource: CelesTrak SupGP

Epoch: Sep 14, 2026, 22:31 UTC

1 63650C 25083S   26257.93868056 -.00001619  00000+0 -58641-4 0  2578
2 63650  43.0023  16.3868 0001490 271.6738 336.0911 15.27582867    19

Track STARLINK-33704 in real time with AllMySat

Download on the App Store